Location: Bailen
(14.1842°N, 120.7958°E)
Time: 17:08:56
(UTC+00:00)

Cosmos 1140 Rocket - Pass Details

Date: 12 January 2026
Orbit: 739 x 763 km, 74.1° (Epoch: 17 February)

Event Time Altitude Azimuth Distance (km) Brightness Sun altitude
Rises 21:48:08 0° 200° (SSW) 3,163 6.7 -9.1°
Reaches altitude 10° 21:50:31 10° 204° (SSW) 2,239 5.9 -8.5°
Maximum altitude 21:55:30 60° 284° (WNW) 844 3.5 -7.4°
Drops below altitude 10° 22:00:29 10° 3° (N) 2,240 5.8 -6.2°
Sets 22:02:52 0° 7° (N) 3,165 6.6 -5.7°
